This is the latest recevied weather packets stored in our database for station/object AJ5AG. If no packets are shown the sender has not sent any weather packets the latest 1 day(s).
| Time | Temp. | Humidity | Pressure | Rain* | Wind** | Luminosity | Snow |
|---|---|---|---|---|---|---|---|
| 1778078213 | 25.56° C | 86% | 1012.9 hPa | 0 mm | - | 124 W/m² | - |
| 1778077609 | 25.56° C | 87% | 1012.7 hPa | 0 mm | - | 108 W/m² | - |
| 1778077004 | 25.56° C | 87% | 1013 hPa | 0 mm | - | 105 W/m² | - |
| 1778076399 | 25° C | 88% | 1012.8 hPa | 0 mm | - | 116 W/m² | - |
| 1778074276 | 25° C | 89% | 1012.7 hPa | 0 mm | - | 73 W/m² | - |
| 1778073368 | 24.44° C | 90% | 1012.9 hPa | 0 mm | - | 67 W/m² | - |
| 1778073064 | 24.44° C | 91% | 1012.9 hPa | 0 mm | - | 58 W/m² | - |
| 1778072761 | 24.44° C | 91% | 1012.8 hPa | 0 mm | - | 41 W/m² | - |
| 1778072157 | 24.44° C | 91% | 1012.9 hPa | 0 mm | - | 30 W/m² | - |
| 1778069131 | 23.89° C | 92% | 1012.5 hPa | 0 mm | - | 11 W/m² | - |
| 1778068526 | 23.89° C | 91% | 1012.4 hPa | 0 mm | - | 2 W/m² | - |
| 1778067921 | 23.89° C | 91% | 1012.4 hPa | 0 mm | - | 1 W/m² | - |
| 1778067317 | 23.89° C | 92% | 1012.1 hPa | 0 mm | - | 1 W/m² | - |
| 1778065197 | 23.89° C | 91% | 1011.8 hPa | 0 mm | - | 0 W/m² | - |
| 1778064893 | 23.89° C | 91% | 1011.9 hPa | 0 mm | - | 0 W/m² | - |
| 1778064591 | 23.89° C | 91% | 1011.8 hPa | 0 mm | - | 0 W/m² | - |
| 1778064289 | 24.44° C | 90% | 1011.7 hPa | 0 mm | - | 0 W/m² | - |
| 1778063079 | 24.44° C | 90% | 1011.5 hPa | 0 mm | - | 0 W/m² | - |
| 1778062472 | 24.44° C | 90% | 1011.3 hPa | 0 mm | - | 0 W/m² | - |
| 1778060053 | 24.44° C | 89% | 1011.1 hPa | 0 mm | - | 0 W/m² | - |
| 1778059751 | 24.44° C | 89% | 1011.2 hPa | 0 mm | - | 0 W/m² | - |
| 1778058843 | 24.44° C | 89% | 1011.2 hPa | 0 mm | - | 0 W/m² | - |
| 1778058540 | 24.44° C | 89% | 1011.1 hPa | 0 mm | - | 0 W/m² | - |
| 1778057934 | 24.44° C | 89% | 1011.2 hPa | 0 mm | - | 0 W/m² | - |
| 1778057630 | 24.44° C | 90% | 1011.1 hPa | 0 mm | - | 0 W/m² | - |
* Rain latest hour (hover to see other rain measurements)
** Current wind speed in m/s (hover to see current wind gust speed)